RUK198P EGCC-GMTT

Flight info

Callsign RUK198P
Flight time 2h 50m
Altitude 36000
Route KUXEM P17 BEPHE DCT OSSEP DCT ELNIF DCT ZESPE DCT KLAKI DCT SALCO/N0447F350 DCT GOPIN/N0444F370 DCT DELOG DCT VADOX DCT SNR DCT TITAN DCT RATAS DCT NEA DCT NONTU DCT ORBIS DCT DISKO DCT TLD DCT DOPEN DCT MONTO DCT MOLIN DCT VJF N10 LINTO DCT NOLRO
Aircraft B738/M-SDE3FGILRWY/SB1

Departure

Time 2026-04-15 10:12
Airport Manchester Airport (EGCC)

Arrival

Time 2026-04-15 13:02
Airport Tangier Ibn Battuta Airport (GMTT)
Time Latitude Longitude Altitude Speed Heading
2026-04-15 09:41 53.36144 -2.26685 254 ft 0 kts 326°
2026-04-15 10:04 53.36131 -2.26672 254 ft 4 kts 335°
2026-04-15 10:04 53.36106 -2.26659 254 ft 4 kts 359°
2026-04-15 10:04 53.36080 -2.26665 254 ft 4 kts 21°
2026-04-15 10:05 53.36057 -2.26686 254 ft 4 kts 43°
2026-04-15 10:05 53.36047 -2.26703 254 ft 0 kts 51°
2026-04-15 10:07 53.36047 -2.26702 254 ft 0 kts 51°
2026-04-15 10:07 53.36055 -2.26686 254 ft 4 kts 51°
2026-04-15 10:07 53.36064 -2.26611 254 ft 9 kts 118°
2026-04-15 10:07 53.36047 -2.26520 255 ft 9 kts 71°
2026-04-15 10:08 53.36083 -2.26439 255 ft 9 kts 51°
2026-04-15 10:08 53.36121 -2.26360 254 ft 9 kts 51°
2026-04-15 10:08 53.36172 -2.26265 254 ft 12 kts 34°
2026-04-15 10:08 53.36233 -2.26174 254 ft 12 kts 53°
2026-04-15 10:09 53.36271 -2.26058 254 ft 11 kts 89°
2026-04-15 10:09 53.36277 -2.25929 254 ft 11 kts 68°
2026-04-15 10:09 53.36283 -2.25808 257 ft 11 kts 116°
2026-04-15 10:09 53.36232 -2.25743 260 ft 8 kts 166°
2026-04-15 10:10 53.36193 -2.25804 258 ft 9 kts 230°
2026-04-15 10:10 53.36185 -2.25820 258 ft 0 kts 231°
2026-04-15 10:11 53.36176 -2.25839 258 ft 16 kts 231°
2026-04-15 10:11 53.35949 -2.26305 262 ft 85 kts 231°
2026-04-15 10:11 53.35443 -2.27352 246 ft 145 kts 229°
2026-04-15 10:12 53.34718 -2.28787 625 ft 168 kts 229°
2026-04-15 10:12 53.33964 -2.30345 1338 ft 175 kts 226°
2026-04-15 10:12 53.33183 -2.31955 2056 ft 183 kts 226°
2026-04-15 10:12 53.32383 -2.33651 2739 ft 185 kts 229°
2026-04-15 10:13 53.31796 -2.35570 3378 ft 199 kts 253°
2026-04-15 10:13 53.31902 -2.38072 3602 ft 227 kts 268°
2026-04-15 10:13 53.31960 -2.40721 4108 ft 231 kts 263°
2026-04-15 10:13 53.31985 -2.43415 4753 ft 231 kts 264°
2026-04-15 10:14 53.32000 -2.46117 4962 ft 231 kts 259°
2026-04-15 10:14 53.31654 -2.48676 5005 ft 224 kts 246°
2026-04-15 10:14 53.31177 -2.51170 4997 ft 226 kts 246°
2026-04-15 10:14 53.30708 -2.53685 5064 ft 228 kts 246°
2026-04-15 10:15 53.30225 -2.56280 5276 ft 241 kts 247°
2026-04-15 10:15 53.29703 -2.59014 5588 ft 248 kts 244°
2026-04-15 10:15 53.29002 -2.61663 6234 ft 250 kts 240°
2026-04-15 10:15 53.28176 -2.64224 7017 ft 249 kts 229°
2026-04-15 10:16 53.26930 -2.66205 7844 ft 248 kts 215°
2026-04-15 10:16 53.25512 -2.67891 8598 ft 252 kts 212°
2026-04-15 10:16 53.24055 -2.69537 9428 ft 254 kts 212°
2026-04-15 10:16 53.22599 -2.71186 10151 ft 259 kts 212°
2026-04-15 10:17 53.21031 -2.72969 10412 ft 282 kts 213°
2026-04-15 10:17 53.19370 -2.74867 10602 ft 304 kts 213°
2026-04-15 10:17 53.17565 -2.76940 10796 ft 325 kts 213°
2026-04-15 10:17 53.15681 -2.79111 11323 ft 333 kts 213°
2026-04-15 10:18 53.13772 -2.81313 12061 ft 335 kts 213°
2026-04-15 10:18 53.11852 -2.83524 12822 ft 336 kts 213°
2026-04-15 10:18 53.09900 -2.85698 13559 ft 338 kts 208°
2026-04-15 10:18 53.07697 -2.87076 14192 ft 341 kts 193°
2026-04-15 10:19 53.05338 -2.87572 14843 ft 345 kts 182°
2026-04-15 10:19 53.02934 -2.87156 15476 ft 349 kts 174°
2026-04-15 10:19 53.00531 -2.86480 16112 ft 352 kts 173°
2026-04-15 10:19 52.98109 -2.85783 16746 ft 355 kts 173°
2026-04-15 10:20 52.95663 -2.85089 17409 ft 357 kts 174°
2026-04-15 10:20 52.93209 -2.84407 18092 ft 358 kts 174°
2026-04-15 10:20 52.90741 -2.83734 18616 ft 361 kts 174°
2026-04-15 10:20 52.88252 -2.83063 18856 ft 362 kts 174°
2026-04-15 10:21 52.85762 -2.82394 18896 ft 362 kts 174°
2026-04-15 10:21 52.83267 -2.81727 18895 ft 363 kts 174°
2026-04-15 10:21 52.80774 -2.81061 18909 ft 363 kts 174°
2026-04-15 10:21 52.78283 -2.80389 18920 ft 363 kts 174°
2026-04-15 10:22 52.75821 -2.79712 18921 ft 363 kts 174°
2026-04-15 10:22 52.73307 -2.79020 19109 ft 370 kts 174°
2026-04-15 10:22 52.70763 -2.78320 19726 ft 369 kts 174°
2026-04-15 10:22 52.68229 -2.77640 20379 ft 368 kts 174°
2026-04-15 10:23 52.65696 -2.76976 20923 ft 370 kts 174°
2026-04-15 10:23 52.63146 -2.76310 21402 ft 372 kts 174°
2026-04-15 10:23 52.60571 -2.75850 21875 ft 373 kts 180°
2026-04-15 10:23 52.57977 -2.76021 22361 ft 373 kts 185°
2026-04-15 10:24 52.55382 -2.76301 22835 ft 375 kts 185°
2026-04-15 10:24 52.52762 -2.76544 23294 ft 378 kts 184°
2026-04-15 10:24 52.50128 -2.76774 23710 ft 380 kts 184°
2026-04-15 10:24 52.47477 -2.77001 24063 ft 382 kts 184°
2026-04-15 10:25 52.44812 -2.77230 24411 ft 385 kts 185°
2026-04-15 10:25 52.42127 -2.77462 24790 ft 386 kts 185°
2026-04-15 10:25 52.39436 -2.77693 25160 ft 388 kts 185°
2026-04-15 10:25 52.36734 -2.77926 25506 ft 390 kts 185°
2026-04-15 10:26 52.34020 -2.78160 25808 ft 392 kts 185°
2026-04-15 10:26 52.31287 -2.78395 26142 ft 394 kts 185°
2026-04-15 10:26 52.28540 -2.78631 26488 ft 396 kts 185°
2026-04-15 10:26 52.25787 -2.78868 26824 ft 397 kts 185°
2026-04-15 10:27 52.23024 -2.79105 27151 ft 399 kts 185°
2026-04-15 10:27 52.20250 -2.79342 27482 ft 400 kts 185°
2026-04-15 10:27 52.17460 -2.79581 27775 ft 402 kts 185°
2026-04-15 10:27 52.14702 -2.79816 28058 ft 404 kts 185°
2026-04-15 10:28 52.11887 -2.80056 28431 ft 403 kts 185°
2026-04-15 10:28 52.09098 -2.80293 28920 ft 400 kts 185°
2026-04-15 10:28 52.06323 -2.80529 29403 ft 398 kts 185°
2026-04-15 10:28 52.03559 -2.80764 29786 ft 398 kts 185°
2026-04-15 10:29 52.00791 -2.81000 30111 ft 398 kts 185°
2026-04-15 10:29 51.98030 -2.81236 30425 ft 397 kts 186°
2026-04-15 10:29 51.95271 -2.81471 30743 ft 397 kts 186°
2026-04-15 10:29 51.92517 -2.81705 31078 ft 396 kts 186°
2026-04-15 10:30 51.89769 -2.81938 31420 ft 395 kts 186°
2026-04-15 10:30 51.87026 -2.82170 31727 ft 394 kts 186°
2026-04-15 10:30 51.84296 -2.82504 32011 ft 393 kts 189°
2026-04-15 10:30 51.81587 -2.83071 32341 ft 392 kts 190°
2026-04-15 10:31 51.78888 -2.83663 32668 ft 391 kts 190°
2026-04-15 10:31 51.76198 -2.84254 32962 ft 390 kts 190°
2026-04-15 10:31 51.73512 -2.84839 33248 ft 390 kts 190°
2026-04-15 10:31 51.70822 -2.85417 33547 ft 389 kts 190°
2026-04-15 10:32 51.68140 -2.85988 33834 ft 389 kts 190°
2026-04-15 10:32 51.65460 -2.86555 34083 ft 388 kts 190°
2026-04-15 10:32 51.62780 -2.87122 34277 ft 389 kts 190°
2026-04-15 10:32 51.60095 -2.87689 34481 ft 390 kts 190°
2026-04-15 10:33 51.57439 -2.88249 34684 ft 390 kts 190°
2026-04-15 10:33 51.54716 -2.88823 34941 ft 390 kts 190°
2026-04-15 10:33 51.52033 -2.89390 35264 ft 386 kts 190°
2026-04-15 10:33 51.49414 -2.89944 35568 ft 384 kts 190°
2026-04-15 10:34 51.46759 -2.90507 35697 ft 386 kts 190°
2026-04-15 10:34 51.44086 -2.91075 35828 ft 388 kts 190°
2026-04-15 10:34 51.41411 -2.91642 35935 ft 389 kts 190°
2026-04-15 10:35 51.36021 -2.92781 35946 ft 389 kts 190°
2026-04-15 10:35 51.30676 -2.93905 35955 ft 386 kts 190°
2026-04-15 10:36 51.25369 -2.95020 35976 ft 384 kts 190°
2026-04-15 10:36 51.20086 -2.96127 35962 ft 382 kts 190°
2026-04-15 10:37 51.14835 -2.97226 35957 ft 380 kts 190°
2026-04-15 10:37 51.09596 -2.98320 35969 ft 379 kts 190°
2026-04-15 10:38 51.04388 -2.99405 35964 ft 380 kts 190°
2026-04-15 10:38 50.99138 -3.00496 35980 ft 381 kts 190°
2026-04-15 10:39 50.93865 -3.01589 35972 ft 383 kts 190°
2026-04-15 10:39 50.88570 -3.02684 35985 ft 385 kts 190°
2026-04-15 10:40 50.83246 -3.03783 35971 ft 387 kts 190°
2026-04-15 10:40 50.77896 -3.04884 35976 ft 388 kts 190°
2026-04-15 10:41 50.72531 -3.05986 35992 ft 389 kts 190°
2026-04-15 10:41 50.67153 -3.07087 35990 ft 389 kts 190°
2026-04-15 10:42 50.61782 -3.08185 35990 ft 389 kts 190°
2026-04-15 10:42 50.56416 -3.09279 35981 ft 388 kts 191°
2026-04-15 10:43 50.51055 -3.10313 36004 ft 389 kts 190°
2026-04-15 10:43 50.48355 -3.10790 36118 ft 391 kts 190°
2026-04-15 10:43 50.45688 -3.11255 36323 ft 390 kts 190°
2026-04-15 10:43 50.42992 -3.11725 36525 ft 390 kts 190°
2026-04-15 10:44 50.40296 -3.12197 36675 ft 391 kts 190°
2026-04-15 10:44 50.37586 -3.12675 36788 ft 392 kts 190°
2026-04-15 10:44 50.34872 -3.13154 36943 ft 392 kts 190°
2026-04-15 10:45 50.29428 -3.14119 36991 ft 395 kts 190°
2026-04-15 10:45 50.23974 -3.15082 36997 ft 393 kts 190°
2026-04-15 10:46 50.18559 -3.16037 37009 ft 391 kts 190°
2026-04-15 10:46 50.13168 -3.16986 37002 ft 388 kts 191°
2026-04-15 10:47 50.07807 -3.17929 37010 ft 387 kts 191°
2026-04-15 10:47 50.02490 -3.18862 37019 ft 387 kts 191°
2026-04-15 10:48 49.97138 -3.19800 37031 ft 388 kts 191°
2026-04-15 10:48 49.91768 -3.20739 37004 ft 388 kts 191°
2026-04-15 10:49 49.86399 -3.21674 37022 ft 388 kts 191°
2026-04-15 10:49 49.81031 -3.22607 37034 ft 388 kts 191°
2026-04-15 10:50 49.75659 -3.23539 37034 ft 389 kts 191°
2026-04-15 10:50 49.70275 -3.24471 37039 ft 389 kts 191°
2026-04-15 10:51 49.64894 -3.25400 37027 ft 389 kts 191°
2026-04-15 10:51 49.59507 -3.26328 37039 ft 390 kts 191°
2026-04-15 10:52 49.54106 -3.27257 37045 ft 391 kts 191°
2026-04-15 10:52 49.48695 -3.28185 37035 ft 391 kts 191°
2026-04-15 10:53 49.43322 -3.29105 37039 ft 391 kts 191°
2026-04-15 10:53 49.37901 -3.30030 37042 ft 392 kts 191°
2026-04-15 10:54 49.32479 -3.30954 37047 ft 392 kts 191°
2026-04-15 10:54 49.27057 -3.31876 37049 ft 392 kts 191°
2026-04-15 10:55 49.21638 -3.32795 37036 ft 392 kts 191°
2026-04-15 10:55 49.16219 -3.33712 37050 ft 392 kts 191°
2026-04-15 10:56 49.10804 -3.34627 37058 ft 391 kts 191°
2026-04-15 10:56 49.05397 -3.35538 37055 ft 391 kts 191°
2026-04-15 10:57 48.99996 -3.36446 37062 ft 390 kts 191°
2026-04-15 10:57 48.91903 -3.37804 37066 ft 390 kts 191°
2026-04-15 10:58 48.86512 -3.38706 37074 ft 390 kts 191°
2026-04-15 10:58 48.81111 -3.39607 37077 ft 390 kts 191°
2026-04-15 10:59 48.75706 -3.40507 37078 ft 391 kts 191°
2026-04-15 10:59 48.71203 -3.41256 37078 ft 392 kts 191°
2026-04-15 11:00 48.65778 -3.42156 37074 ft 393 kts 191°
2026-04-15 11:00 48.59460 -3.43201 37024 ft 393 kts 191°
2026-04-15 11:01 48.54919 -3.43950 37068 ft 392 kts 191°
2026-04-15 11:01 48.49486 -3.44846 37079 ft 393 kts 192°
2026-04-15 11:02 48.44075 -3.45737 37081 ft 395 kts 192°
2026-04-15 11:02 48.38601 -3.46636 37076 ft 397 kts 192°
2026-04-15 11:03 48.33108 -3.47534 37072 ft 397 kts 192°
2026-04-15 11:03 48.27604 -3.48433 37084 ft 398 kts 192°
2026-04-15 11:04 48.22090 -3.49333 37093 ft 400 kts 192°
2026-04-15 11:04 48.16558 -3.50233 37073 ft 400 kts 192°
2026-04-15 11:05 48.11021 -3.51131 37086 ft 400 kts 192°
2026-04-15 11:05 48.05483 -3.52027 37099 ft 400 kts 192°
2026-04-15 11:06 47.99952 -3.52921 37103 ft 399 kts 192°
2026-04-15 11:06 47.94433 -3.53810 37083 ft 399 kts 192°
2026-04-15 11:07 47.88920 -3.54697 37108 ft 398 kts 192°
2026-04-15 11:07 47.83419 -3.55581 37108 ft 397 kts 192°
2026-04-15 11:08 47.77923 -3.56462 37134 ft 397 kts 193°
2026-04-15 11:08 47.72427 -3.57341 37119 ft 397 kts 193°
2026-04-15 11:09 47.66922 -3.58220 37124 ft 398 kts 193°
2026-04-15 11:09 47.61418 -3.59096 37130 ft 398 kts 193°
2026-04-15 11:10 47.55944 -3.59966 37132 ft 398 kts 193°
2026-04-15 11:10 47.50435 -3.60839 37131 ft 398 kts 193°
2026-04-15 11:11 47.44932 -3.61710 37137 ft 398 kts 193°
2026-04-15 11:11 47.39411 -3.62582 37143 ft 399 kts 193°
2026-04-15 11:12 47.33881 -3.63454 37147 ft 400 kts 193°
2026-04-15 11:12 47.28332 -3.64326 37138 ft 401 kts 193°
2026-04-15 11:13 47.22775 -3.65198 37153 ft 402 kts 193°
2026-04-15 11:13 47.17204 -3.66071 37152 ft 403 kts 193°
2026-04-15 11:14 47.11617 -3.66944 37135 ft 404 kts 193°
2026-04-15 11:14 47.06011 -3.67818 37161 ft 405 kts 193°
2026-04-15 11:15 47.00394 -3.68613 37165 ft 407 kts 192°
2026-04-15 11:15 46.94738 -3.69265 37165 ft 408 kts 192°
2026-04-15 11:16 46.89077 -3.69906 37144 ft 407 kts 192°
2026-04-15 11:16 46.83428 -3.70560 37155 ft 407 kts 192°
2026-04-15 11:17 46.77789 -3.71220 37166 ft 406 kts 192°
2026-04-15 11:17 46.72192 -3.71878 37175 ft 406 kts 192°
2026-04-15 11:18 46.66553 -3.72540 37174 ft 406 kts 192°
2026-04-15 11:18 46.60925 -3.73199 37171 ft 406 kts 192°
2026-04-15 11:19 46.55294 -3.73857 37173 ft 406 kts 192°
2026-04-15 11:19 46.49664 -3.74514 37155 ft 406 kts 192°
2026-04-15 11:20 46.44046 -3.75167 37179 ft 405 kts 192°
2026-04-15 11:20 46.38421 -3.75820 37188 ft 406 kts 192°
2026-04-15 11:21 46.32787 -3.76474 37188 ft 406 kts 192°
2026-04-15 11:21 46.27153 -3.77125 37185 ft 406 kts 192°
2026-04-15 11:22 46.21507 -3.77777 37192 ft 408 kts 192°
2026-04-15 11:22 46.15844 -3.78430 37202 ft 409 kts 192°
2026-04-15 11:23 46.10160 -3.79083 37182 ft 410 kts 192°
2026-04-15 11:23 46.04458 -3.79737 37199 ft 411 kts 192°
2026-04-15 11:24 45.98739 -3.80391 37205 ft 413 kts 192°
2026-04-15 11:24 45.93007 -3.81046 37208 ft 414 kts 192°
2026-04-15 11:25 45.87266 -3.81699 37203 ft 414 kts 192°
2026-04-15 11:25 45.81562 -3.82348 37207 ft 414 kts 192°
2026-04-15 11:26 45.75816 -3.83000 37213 ft 414 kts 192°
2026-04-15 11:26 45.70063 -3.83651 37182 ft 415 kts 192°
2026-04-15 11:27 45.64320 -3.84299 37203 ft 414 kts 192°
2026-04-15 11:27 45.58574 -3.84948 37224 ft 414 kts 192°
2026-04-15 11:28 45.52826 -3.85595 37218 ft 414 kts 192°
2026-04-15 11:28 45.47070 -3.86241 37217 ft 414 kts 192°
2026-04-15 11:29 45.41324 -3.86885 37227 ft 414 kts 192°
2026-04-15 11:29 45.35571 -3.87529 37238 ft 415 kts 192°
2026-04-15 11:30 45.29820 -3.88171 37210 ft 415 kts 192°
2026-04-15 11:30 45.24069 -3.88812 37222 ft 414 kts 192°
2026-04-15 11:31 45.18318 -3.89451 37230 ft 414 kts 192°
2026-04-15 11:31 45.12568 -3.90089 37231 ft 415 kts 192°
2026-04-15 11:32 45.06817 -3.90726 37226 ft 414 kts 192°
2026-04-15 11:32 45.01102 -3.91358 37233 ft 414 kts 192°
2026-04-15 11:33 44.95347 -3.91993 37237 ft 415 kts 192°
2026-04-15 11:33 44.89595 -3.92626 37232 ft 414 kts 192°
2026-04-15 11:34 44.83841 -3.93258 37226 ft 415 kts 192°
2026-04-15 11:34 44.78091 -3.93888 37234 ft 415 kts 192°
2026-04-15 11:35 44.72333 -3.94518 37238 ft 415 kts 192°
2026-04-15 11:35 44.66573 -3.95147 37240 ft 415 kts 192°
2026-04-15 11:36 44.60810 -3.95775 37232 ft 415 kts 192°
2026-04-15 11:36 44.55046 -3.96402 37243 ft 415 kts 192°
2026-04-15 11:37 44.49288 -3.97027 37225 ft 415 kts 192°
2026-04-15 11:37 44.43532 -3.97651 37246 ft 415 kts 192°
2026-04-15 11:38 44.37778 -3.98273 37244 ft 415 kts 192°
2026-04-15 11:38 44.32052 -3.98794 37231 ft 419 kts 187°
2026-04-15 11:39 44.26188 -3.98271 37240 ft 424 kts 184°
2026-04-15 11:39 44.20312 -3.97604 37242 ft 423 kts 184°
2026-04-15 11:40 44.14440 -3.96986 37213 ft 423 kts 185°
2026-04-15 11:40 44.08576 -3.96404 37232 ft 422 kts 185°
2026-04-15 11:41 44.02720 -3.95832 37243 ft 422 kts 185°
2026-04-15 11:41 43.96860 -3.95262 37242 ft 422 kts 185°
2026-04-15 11:42 43.91009 -3.94691 37234 ft 422 kts 185°
2026-04-15 11:42 43.85151 -3.94121 37240 ft 422 kts 185°
2026-04-15 11:43 43.79292 -3.93552 37242 ft 422 kts 185°
2026-04-15 11:43 43.73432 -3.92982 37233 ft 422 kts 185°
2026-04-15 11:44 43.67565 -3.92406 37243 ft 423 kts 185°
2026-04-15 11:44 43.61696 -3.91830 37243 ft 423 kts 185°
2026-04-15 11:45 43.55820 -3.91256 37207 ft 424 kts 185°
2026-04-15 11:45 43.49931 -3.90681 37234 ft 424 kts 185°
2026-04-15 11:46 43.45040 -3.90251 37237 ft 421 kts 189°
2026-04-15 11:46 43.39303 -3.90950 37235 ft 413 kts 195°
2026-04-15 11:47 43.33587 -3.91871 37230 ft 414 kts 195°
2026-04-15 11:47 43.27853 -3.92755 37241 ft 416 kts 195°
2026-04-15 11:48 43.22081 -3.93619 37240 ft 418 kts 195°
2026-04-15 11:48 43.16295 -3.94474 37207 ft 418 kts 195°
2026-04-15 11:49 43.10514 -3.95328 37232 ft 418 kts 194°
2026-04-15 11:49 43.04715 -3.96186 37218 ft 420 kts 194°
2026-04-15 11:50 42.98888 -3.97046 37216 ft 422 kts 194°
2026-04-15 11:50 42.93050 -3.97904 37195 ft 423 kts 194°
2026-04-15 11:51 42.87196 -3.98761 37218 ft 423 kts 194°
2026-04-15 11:51 42.81336 -3.99617 37212 ft 424 kts 194°
2026-04-15 11:52 42.75477 -4.00471 37216 ft 423 kts 194°
2026-04-15 11:52 42.69616 -4.01325 37216 ft 423 kts 194°
2026-04-15 11:53 42.63804 -4.02170 37207 ft 422 kts 194°
2026-04-15 11:53 42.57973 -4.03016 37223 ft 421 kts 194°
2026-04-15 11:54 42.52141 -4.03857 37197 ft 421 kts 194°
2026-04-15 11:54 42.46321 -4.04692 37213 ft 420 kts 194°
2026-04-15 11:55 42.40509 -4.05526 37226 ft 420 kts 194°
2026-04-15 11:55 42.34689 -4.06360 37221 ft 420 kts 194°
2026-04-15 11:56 42.28872 -4.07192 37222 ft 421 kts 194°
2026-04-15 11:56 42.23036 -4.08024 37230 ft 422 kts 194°
2026-04-15 11:57 42.14258 -4.09274 37232 ft 424 kts 194°
2026-04-15 11:58 42.08385 -4.10108 37226 ft 424 kts 194°
2026-04-15 11:58 42.02498 -4.10942 37239 ft 426 kts 193°
2026-04-15 11:59 41.96579 -4.11656 37240 ft 428 kts 192°
2026-04-15 11:59 41.90632 -4.12309 37223 ft 429 kts 192°
2026-04-15 12:00 41.84714 -4.12968 37243 ft 430 kts 192°
2026-04-15 12:00 41.78751 -4.13644 37247 ft 430 kts 192°
2026-04-15 12:01 41.72775 -4.14323 37250 ft 431 kts 192°
2026-04-15 12:01 41.66802 -4.15001 37236 ft 430 kts 192°
2026-04-15 12:02 41.60834 -4.15676 37239 ft 431 kts 192°
2026-04-15 12:02 41.54862 -4.16351 37246 ft 431 kts 192°
2026-04-15 12:03 41.48885 -4.17025 37246 ft 431 kts 192°
2026-04-15 12:03 41.42906 -4.17691 37244 ft 431 kts 192°
2026-04-15 12:04 41.36923 -4.18355 37255 ft 431 kts 192°
2026-04-15 12:04 41.30938 -4.19019 37245 ft 432 kts 192°
2026-04-15 12:05 41.24940 -4.19684 37231 ft 433 kts 192°
2026-04-15 12:05 41.18938 -4.20355 37253 ft 433 kts 192°
2026-04-15 12:06 41.12920 -4.21028 37250 ft 434 kts 192°
2026-04-15 12:06 41.06904 -4.21699 37239 ft 434 kts 192°
2026-04-15 12:07 41.00914 -4.22365 37226 ft 435 kts 191°
2026-04-15 12:07 40.94880 -4.23033 37232 ft 435 kts 191°
2026-04-15 12:08 40.88835 -4.23699 37227 ft 436 kts 191°
2026-04-15 12:08 40.82785 -4.24366 37218 ft 436 kts 191°
2026-04-15 12:09 40.76728 -4.25032 37226 ft 437 kts 191°
2026-04-15 12:09 40.70658 -4.25698 37231 ft 438 kts 191°
2026-04-15 12:10 40.64583 -4.26364 37218 ft 438 kts 191°
2026-04-15 12:10 40.58498 -4.27029 37231 ft 439 kts 191°
2026-04-15 12:11 40.52451 -4.27689 37201 ft 438 kts 191°
2026-04-15 12:11 40.46387 -4.28349 37217 ft 437 kts 191°
2026-04-15 12:12 40.40318 -4.29010 37208 ft 437 kts 191°
2026-04-15 12:12 40.34264 -4.29666 37207 ft 436 kts 191°
2026-04-15 12:13 40.28224 -4.30322 37209 ft 436 kts 191°
2026-04-15 12:13 40.22177 -4.30977 37214 ft 436 kts 191°
2026-04-15 12:14 40.16120 -4.31631 37205 ft 437 kts 191°
2026-04-15 12:14 40.10051 -4.32286 37218 ft 438 kts 191°
2026-04-15 12:15 40.03967 -4.32941 37214 ft 439 kts 191°
2026-04-15 12:15 39.97876 -4.33595 37216 ft 440 kts 191°
2026-04-15 12:16 39.91847 -4.34671 37211 ft 436 kts 196°
2026-04-15 12:16 39.85876 -4.36090 37218 ft 436 kts 196°
2026-04-15 12:17 39.79887 -4.37444 37209 ft 437 kts 195°
2026-04-15 12:17 39.73971 -4.38919 37210 ft 431 kts 204°
2026-04-15 12:18 39.68362 -4.41571 37208 ft 429 kts 206°
2026-04-15 12:18 39.62565 -4.43643 37220 ft 434 kts 198°
2026-04-15 12:19 39.56664 -4.45320 37230 ft 434 kts 198°
2026-04-15 12:19 39.50773 -4.47006 37215 ft 434 kts 198°
2026-04-15 12:20 39.44892 -4.48739 37216 ft 433 kts 198°
2026-04-15 12:20 39.39009 -4.50495 37229 ft 434 kts 198°
2026-04-15 12:21 39.33117 -4.52257 37228 ft 435 kts 198°
2026-04-15 12:21 39.27223 -4.54015 37241 ft 435 kts 198°
2026-04-15 12:22 39.21325 -4.55771 37237 ft 435 kts 198°
2026-04-15 12:22 39.15421 -4.57525 37227 ft 435 kts 198°
2026-04-15 12:23 39.09511 -4.59278 37243 ft 435 kts 198°
2026-04-15 12:23 39.03612 -4.61025 37228 ft 435 kts 198°
2026-04-15 12:24 38.97719 -4.62766 37228 ft 434 kts 198°
2026-04-15 12:24 38.91840 -4.64501 37232 ft 433 kts 198°
2026-04-15 12:25 38.85960 -4.66233 37230 ft 433 kts 198°
2026-04-15 12:25 38.80128 -4.67948 37231 ft 433 kts 198°
2026-04-15 12:26 38.74247 -4.69675 37235 ft 433 kts 198°
2026-04-15 12:26 38.68370 -4.71398 37238 ft 433 kts 198°
2026-04-15 12:27 38.62489 -4.73119 37238 ft 434 kts 198°
2026-04-15 12:27 38.56596 -4.74841 37235 ft 434 kts 198°
2026-04-15 12:28 38.50702 -4.76559 37227 ft 434 kts 198°
2026-04-15 12:28 38.44803 -4.78277 37229 ft 435 kts 198°
2026-04-15 12:29 38.38900 -4.79992 37237 ft 435 kts 198°
2026-04-15 12:29 38.32989 -4.81708 37230 ft 436 kts 198°
2026-04-15 12:30 38.27070 -4.83422 37229 ft 436 kts 198°
2026-04-15 12:30 38.21178 -4.85126 37232 ft 437 kts 198°
2026-04-15 12:31 38.15246 -4.86839 37220 ft 437 kts 198°
2026-04-15 12:31 38.09317 -4.88547 37228 ft 437 kts 198°
2026-04-15 12:32 38.03391 -4.90252 37220 ft 437 kts 198°
2026-04-15 12:32 37.97462 -4.91956 37233 ft 437 kts 198°
2026-04-15 12:32 37.94493 -4.92808 37097 ft 439 kts 198°
2026-04-15 12:33 37.91495 -4.93670 36625 ft 442 kts 197°
2026-04-15 12:33 37.88501 -4.94527 36082 ft 440 kts 197°
2026-04-15 12:33 37.85537 -4.95373 35721 ft 435 kts 197°
2026-04-15 12:33 37.82598 -4.96211 35295 ft 431 kts 197°
2026-04-15 12:34 37.79680 -4.97043 34899 ft 428 kts 197°
2026-04-15 12:34 37.76787 -4.97868 34506 ft 425 kts 197°
2026-04-15 12:34 37.73913 -4.98688 34092 ft 422 kts 196°
2026-04-15 12:34 37.71058 -4.99502 33649 ft 419 kts 196°
2026-04-15 12:35 37.69176 -5.00038 33370 ft 417 kts 196°
2026-04-15 12:35 37.66357 -5.00840 32966 ft 414 kts 196°
2026-04-15 12:35 37.63561 -5.01636 32579 ft 410 kts 196°
2026-04-15 12:35 37.60785 -5.02425 32179 ft 407 kts 196°
2026-04-15 12:36 37.58031 -5.03207 31806 ft 404 kts 196°
2026-04-15 12:36 37.55292 -5.03984 31433 ft 402 kts 196°
2026-04-15 12:36 37.52571 -5.04756 31064 ft 399 kts 196°
2026-04-15 12:36 37.49869 -5.05522 30683 ft 397 kts 196°
2026-04-15 12:37 37.47180 -5.06284 30315 ft 395 kts 196°
2026-04-15 12:37 37.44513 -5.07039 29890 ft 393 kts 196°
2026-04-15 12:37 37.41855 -5.07790 29479 ft 389 kts 196°
2026-04-15 12:37 37.39221 -5.08534 29091 ft 386 kts 196°
2026-04-15 12:38 37.36605 -5.09273 28696 ft 383 kts 196°
2026-04-15 12:38 37.34018 -5.10003 28333 ft 380 kts 196°
2026-04-15 12:38 37.31448 -5.10727 27943 ft 377 kts 196°
2026-04-15 12:38 37.28925 -5.11438 27574 ft 375 kts 196°
2026-04-15 12:39 37.26352 -5.12163 27197 ft 373 kts 196°
2026-04-15 12:39 37.23859 -5.12865 26835 ft 371 kts 196°
2026-04-15 12:39 37.21349 -5.13571 26468 ft 369 kts 196°
2026-04-15 12:39 37.18851 -5.14273 26105 ft 367 kts 196°
2026-04-15 12:40 37.16363 -5.14972 25742 ft 366 kts 196°
2026-04-15 12:40 37.13885 -5.15667 25381 ft 364 kts 196°
2026-04-15 12:40 37.11419 -5.16359 25014 ft 363 kts 196°
2026-04-15 12:40 37.08954 -5.17050 24662 ft 362 kts 196°
2026-04-15 12:41 37.06501 -5.17737 24289 ft 362 kts 195°
2026-04-15 12:41 37.04048 -5.18424 23930 ft 361 kts 195°
2026-04-15 12:41 37.01596 -5.19110 23536 ft 361 kts 195°
2026-04-15 12:41 36.99145 -5.19795 23139 ft 360 kts 195°
2026-04-15 12:42 36.96708 -5.20476 22768 ft 358 kts 195°
2026-04-15 12:42 36.94284 -5.21152 22399 ft 356 kts 195°
2026-04-15 12:42 36.91874 -5.21824 22046 ft 354 kts 195°
2026-04-15 12:42 36.89472 -5.22494 21693 ft 353 kts 195°
2026-04-15 12:43 36.87082 -5.23159 21335 ft 351 kts 195°
2026-04-15 12:43 36.84699 -5.23823 20992 ft 350 kts 195°
2026-04-15 12:43 36.82325 -5.24483 20649 ft 349 kts 195°
2026-04-15 12:43 36.79962 -5.25140 20311 ft 348 kts 195°
2026-04-15 12:44 36.77604 -5.25796 19975 ft 347 kts 195°
2026-04-15 12:44 36.75252 -5.26449 19630 ft 346 kts 195°
2026-04-15 12:44 36.72910 -5.27100 19297 ft 345 kts 195°
2026-04-15 12:44 36.70562 -5.27751 18948 ft 345 kts 194°
2026-04-15 12:45 36.68219 -5.28401 18607 ft 346 kts 195°
2026-04-15 12:45 36.65867 -5.29052 18197 ft 346 kts 194°
2026-04-15 12:45 36.63524 -5.29701 17847 ft 344 kts 194°
2026-04-15 12:45 36.61191 -5.30346 17488 ft 343 kts 194°
2026-04-15 12:46 36.58863 -5.30990 17148 ft 342 kts 194°
2026-04-15 12:46 36.56547 -5.31630 16812 ft 340 kts 194°
2026-04-15 12:46 36.54237 -5.32267 16469 ft 339 kts 194°
2026-04-15 12:46 36.51937 -5.32902 16129 ft 338 kts 194°
2026-04-15 12:47 36.49671 -5.33527 15790 ft 337 kts 194°
2026-04-15 12:47 36.47388 -5.34156 15469 ft 335 kts 194°
2026-04-15 12:47 36.45084 -5.34791 15140 ft 334 kts 193°
2026-04-15 12:47 36.42812 -5.35416 14804 ft 334 kts 193°
2026-04-15 12:48 36.40548 -5.36039 14458 ft 334 kts 193°
2026-04-15 12:48 36.38280 -5.36663 14128 ft 334 kts 193°
2026-04-15 12:48 36.36004 -5.37289 13747 ft 335 kts 193°
2026-04-15 12:48 36.33763 -5.37904 13401 ft 334 kts 193°
2026-04-15 12:49 36.31500 -5.38526 13058 ft 332 kts 193°
2026-04-15 12:49 36.29251 -5.39142 12721 ft 331 kts 193°
2026-04-15 12:49 36.27009 -5.39758 12391 ft 329 kts 193°
2026-04-15 12:49 36.24779 -5.40369 12059 ft 327 kts 193°
2026-04-15 12:50 36.22561 -5.40976 11743 ft 326 kts 193°
2026-04-15 12:50 36.20349 -5.41581 11409 ft 325 kts 193°
2026-04-15 12:50 36.18146 -5.42183 11080 ft 324 kts 193°
2026-04-15 12:50 36.15947 -5.42784 10761 ft 323 kts 193°
2026-04-15 12:51 36.13761 -5.43382 10511 ft 319 kts 193°
2026-04-15 12:51 36.11627 -5.43965 10375 ft 311 kts 192°
2026-04-15 12:51 36.09537 -5.44535 10233 ft 304 kts 192°
2026-04-15 12:51 36.07490 -5.45093 10155 ft 296 kts 193°
2026-04-15 12:52 36.05457 -5.45647 9675 ft 301 kts 192°
2026-04-15 12:52 36.03420 -5.46203 9372 ft 299 kts 192°
2026-04-15 12:52 36.01391 -5.46756 9060 ft 298 kts 192°
2026-04-15 12:52 35.99372 -5.47306 8763 ft 297 kts 192°
2026-04-15 12:53 35.97359 -5.47854 8465 ft 295 kts 192°
2026-04-15 12:53 35.95361 -5.48397 8181 ft 293 kts 192°
2026-04-15 12:53 35.93375 -5.48937 7898 ft 292 kts 191°
2026-04-15 12:53 35.91396 -5.49475 7609 ft 290 kts 191°
2026-04-15 12:54 35.89425 -5.50010 7325 ft 289 kts 191°
2026-04-15 12:54 35.87453 -5.50544 6992 ft 291 kts 191°
2026-04-15 12:54 35.85465 -5.51084 6674 ft 293 kts 191°
2026-04-15 12:54 35.83476 -5.51624 6382 ft 293 kts 191°
2026-04-15 12:55 35.81510 -5.52155 6063 ft 293 kts 191°
2026-04-15 12:55 35.79526 -5.52692 5760 ft 292 kts 191°
2026-04-15 12:55 35.77550 -5.53228 5534 ft 288 kts 191°
2026-04-15 12:55 35.75618 -5.53752 5399 ft 281 kts 191°
2026-04-15 12:56 35.73735 -5.54261 5276 ft 273 kts 191°
2026-04-15 12:56 35.71934 -5.54928 5102 ft 271 kts 208°
2026-04-15 12:56 35.70590 -5.56512 4900 ft 270 kts 239°
2026-04-15 12:56 35.70003 -5.58667 4636 ft 265 kts 265°
2026-04-15 12:57 35.70143 -5.60885 4397 ft 257 kts 281°
2026-04-15 12:57 35.70421 -5.63038 4129 ft 253 kts 278°
2026-04-15 12:57 35.70642 -5.65159 3859 ft 247 kts 277°
2026-04-15 12:57 35.70842 -5.67229 3609 ft 241 kts 278°
2026-04-15 12:58 35.71057 -5.69257 3431 ft 238 kts 277°
2026-04-15 12:58 35.71252 -5.71282 3121 ft 237 kts 277°
2026-04-15 12:58 35.71434 -5.73273 2813 ft 231 kts 277°
2026-04-15 12:58 35.71608 -5.75195 2515 ft 219 kts 277°
2026-04-15 12:59 35.71932 -5.78722 1965 ft 196 kts 277°
2026-04-15 12:59 35.72078 -5.80353 1705 ft 187 kts 278°
2026-04-15 12:59 35.72219 -5.81887 1501 ft 172 kts 278°
2026-04-15 13:00 35.72348 -5.83288 1231 ft 158 kts 277°
2026-04-15 13:00 35.72467 -5.84580 1033 ft 149 kts 278°
2026-04-15 13:00 35.72583 -5.85838 842 ft 146 kts 277°
2026-04-15 13:00 35.72699 -5.87068 660 ft 143 kts 277°
2026-04-15 13:01 35.72810 -5.88289 451 ft 146 kts 276°
2026-04-15 13:01 35.72923 -5.89514 276 ft 143 kts 276°
2026-04-15 13:01 35.73032 -5.90717 107 ft 140 kts 276°
2026-04-15 13:01 35.73139 -5.91851 60 ft 123 kts 276°
2026-04-15 13:02 35.73219 -5.92701 51 ft 82 kts 276°
2026-04-15 13:02 35.73262 -5.93156 52 ft 18 kts 276°
2026-04-15 13:02 35.73249 -5.93279 56 ft 13 kts 234°
2026-04-15 13:02 35.73173 -5.93331 59 ft 13 kts 179°
2026-04-15 13:03 35.73100 -5.93277 59 ft 13 kts 122°
2026-04-15 13:03 35.73081 -5.93175 59 ft 12 kts 97°
2026-04-15 13:03 35.73071 -5.93072 52 ft 12 kts 96°
2026-04-15 13:03 35.73062 -5.92972 59 ft 12 kts 96°
2026-04-15 13:04 35.73053 -5.92875 59 ft 11 kts 96°
2026-04-15 13:04 35.73044 -5.92780 53 ft 11 kts 96°
2026-04-15 13:04 35.73035 -5.92688 59 ft 11 kts 96°
2026-04-15 13:04 35.73026 -5.92589 57 ft 13 kts 96°
2026-04-15 13:05 35.73014 -5.92451 51 ft 19 kts 96°
2026-04-15 13:05 35.72999 -5.92284 52 ft 20 kts 96°
2026-04-15 13:05 35.72983 -5.92120 58 ft 19 kts 97°
2026-04-15 13:05 35.72968 -5.91961 58 ft 18 kts 96°
2026-04-15 13:06 35.72955 -5.91810 59 ft 16 kts 97°
2026-04-15 13:06 35.72926 -5.91732 55 ft 10 kts 149°
2026-04-15 13:06 35.72858 -5.91716 59 ft 10 kts 181°
2026-04-15 13:06 35.72792 -5.91712 59 ft 10 kts 175°
2026-04-15 13:07 35.72726 -5.91706 59 ft 9 kts 175°
2026-04-15 13:07 35.72662 -5.91700 59 ft 9 kts 175°
2026-04-15 13:07 35.72600 -5.91694 59 ft 9 kts 175°
2026-04-15 13:07 35.72540 -5.91689 59 ft 9 kts 175°
2026-04-15 13:08 35.72486 -5.91674 52 ft 8 kts 154°
2026-04-15 13:08 35.72441 -5.91621 59 ft 10 kts 122°
2026-04-15 13:08 35.72427 -5.91523 53 ft 12 kts 86°
2026-04-15 13:08 35.72433 -5.91417 59 ft 12 kts 85°
2026-04-15 13:09 35.72441 -5.91314 53 ft 12 kts 85°
2026-04-15 13:09 35.72446 -5.91219 59 ft 9 kts 86°
2026-04-15 13:09 35.72484 -5.91189 53 ft 8 kts 354°
2026-04-15 13:09 35.72522 -5.91193 59 ft 3 kts 355°
2026-04-15 13:10 35.72525 -5.91193 59 ft 0 kts 355°